Flag for U.S.A. Weather past 2 weeks in Scranton, Pennsylvania, U.S.A.

Now
53 °F

Light rain. Fog.


Feels Like: 51 °F
Forecast: 52 / 65 °F
Wind: 6 mph from Northeast

Location: Barre - Scranton - Wilkes-Barre / Scranton International Airport

Current Time: Jun 2, 2015 at 9:47:22 AM

Latest Report: Jun 2, 2015 at 8:54 AM


Visibility: 6 mi

Pressure: 30.13 "Hg

Humidity: 86%

Dew point: 49 °F

Location of ScrantonLocation

Historic Weather in Scranton — Graph

°F

Scranton temperature yesterday

Maximum temperature yesterday: 65 °F (at 12:54 AM)
Minimum temperature yesterday: 56 °F (at 9:54 PM)
Average temperature yesterday: 62 °F

Past Weeks' High & Low Weather Summary

 TemperatureHumidityPressure
High88 °F (May 26, 2:54 PM)94% (May 28, 4:54 AM)30.44 "Hg (May 28, 4:54 AM)
Low40 °F (May 24, 5:54 AM)19% (May 22, 5:54 PM)29.75 "Hg (May 19, 5:54 PM)
Average66 °F62%30.09 "Hg
* Reported May 18 7:54 AM — Jun 2 7:54 AM, Scranton, Weather by CustomWeather, © 2015

Note: Actual official high and low records may vary slightly from our data, if they occured in-between our weather recording intervals... More about our weather records

Advertising

Scranton weather history for previous 24 hours

 ConditionsComfort  
Time TempWeatherWind HumidityBarometerVisibility
7:54 AM
Tue, Jun 2
52 °FLight rain. More clouds than sun.3 mph86%30.11 "Hg8 mi
6:54 AM51 °FLight rain. Overcast.5 mph89%30.09 "Hg10 mi
5:54 AM52 °FLight rain. Mostly cloudy.5 mph86%30.10 "Hg10 mi
4:54 AM52 °FLight rain. Overcast.3 mph86%30.09 "Hg10 mi
3:54 AM52 °FLight rain. Mostly cloudy.3 mph86%30.10 "Hg10 mi
3:01 AM52 °FLight rain. Fog.5 mph89%30.11 "Hg4 mi
1:54 AM53 °FMostly cloudy.5 mph89%30.11 "Hg10 mi
12:54 AM54 °FFog.6 mph90%30.10 "Hg4 mi
10:54 PM
Mon, Jun 1
56 °FMostly cloudy.5 mph84%30.12 "Hg10 mi
9:54 PM56 °FLow clouds.6 mph84%30.11 "Hg10 mi
8:54 PM57 °FOvercast.5 mph83%30.10 "Hg8 mi
7:54 PM59 °FOvercast.7 mph84%30.09 "Hg10 mi
6:54 PM60 °FOvercast.8 mph83%30.06 "Hg10 mi
5:54 PM62 °FOvercast.9 mph83%30.05 "Hg10 mi
4:54 PM61 °FLight rain. Fog.10 mph90%30.05 "Hg3 mi
3:54 PM64 °FOvercast.9 mph81%30.04 "Hg10 mi
2:54 PM65 °FOvercast.5 mph81%30.04 "Hg10 mi
1:54 PM64 °FOvercast.6 mph84%30.04 "Hg10 mi
12:54 PM65 °FOvercast.6 mph81%30.06 "Hg10 mi
11:54 AM65 °FOvercast.7 mph81%30.05 "Hg10 mi
10:54 AM65 °FOvercast.3 mph78%30.04 "Hg10 mi
9:54 AM63 °FOvercast.5 mph84%30.05 "Hg10 mi
Weather by CustomWeather, © 2015

See weather overviewHow to use our weather pages